THORAD AGENA D DEB, 14466

Orbit data source: Space-Track

THORAD AGENA D DEB, 14466 is space debris in SSO originally from a launch on Wed, 08 Apr 1970 UTC launched from the Air Force Western Test Range (AFWTR). Debris objects in space refer to the collection of defunct objects orbiting the Earth. Examples of debris include non-operational satellites, rocket bodies, and fragments generated from explosions, collisions, or faulty payload assembly.

Loading next visibility...
Identifier
14466, 1970-025NS
Orbit
SSO
Country
Flag of USUS
Related business
Manufacturer
Unknown
Mission
Spacecraft
Bus & Motor
Unknown
Mass
Unknown
Launch date (UTC)
1970-04-08 (56 years ago)
Launch vehicle
Unknown
Launch site
Air Force Western Test Range (AFWTR)
Object type
Payload
Rocket body
Debris
Shape & HBR
Unknown shape, 0.1 m
Radar Cross Section
Small (<0.1 m²)

Expand to show TLE details & history
Last TLE update: 22 hours ago

TLE from 22 hours ago
0 THORAD AGENA D DEB
1 14466U 70025NS  25349.12706466  .00005302  00000-0  11772-2 0  9990
2 14466  99.9679 138.6423 0044917  93.4990 267.1341 14.56976991285587
Epoch: 2025-12-15T03:02Z
TLE epoch observation values (Epoch: 2025-12-15T03:02:58.386Z)
Latitude
-0.00009°
Longitude
8.86895°
Altitude
707.606 km
Speed
7.501 km/s
True Right ascension
09h 14m 34s
True Declination
0° 00' 00"
Sunlit
Object was in full shadow at epoch
Visualization orbit readout
Latitude
Unknown
Longitude
Unknown
Altitude
Unknown
Speed
Unknown
Apparent Right ascension
Unknown
Apparent Declination
Unknown
Sunlit
N/A
Visualization observer readout
Local Sidereal Time
23:40:33
Azimuth
Unknown
Elevation
Unknown
Doppler factor
Unknown
Orbital elements
Apogee altitude
731.92 km
Perigee altitude
668.333 km
Semi-major axis
7,078.264 km
Eccentricity
0.00449
Inclination
99.9679°
RAAN
138.6423°
Arg. of periapsis
93.499°
True anomaly
266.62018°
Mean anomaly
267.1341°
Eccentric anomaly
266.87713°
Mean motion
3.64463 °/min
Orbital period
98.78 mins
BSTAR
0.0011772
Loading maneuver chart data...
Computing Atmospheric mass density...

Documentation

Showing up to 5 results
|